Location: ????????
(55.8351°N, 38.7040°E)
Time: 02:40:03
(UTC+00:00)

CZ-2C R/B - Pass Details

Date: 14 April 2024
Orbit: 666 x 778 km, 98.4° (Epoch: 18 May)

Event Time Altitude Azimuth Distance (km) Brightness Sun altitude
Rises 00:42:56 0° 18° (NNE) 3,258 6.8 -12.9°
Reaches altitude 10° 00:45:20 10° 24° (NNE) 2,336 6.1 -12.7°
Maximum altitude 00:50:21 48° 99° (E) 1,013 3.4 -12.1°
Drops below altitude 10° 00:55:20 10° 174° (S) 2,328 4.7 -11.6°
Sets 00:57:43 0° 180° (S) 3,246 5.4 -11.3°
